Weather History for Easton, MD

Change the Weather History Date:

Monday, June 24, 2013

  Actual Average Record
Temperature  
Mean Temperature 81 °F -  
Max Temperature 91 °F 85 °F 95 °F (1951)
Min Temperature 71 °F 64 °F 52 °F (1958)
Cooling Degree Days 16    
Growing Degree Days 31 (Base 50)    
Moisture  
Dew Point 74 °F    
Average Humidity 91    
Maximum Humidity 100    
Minimum Humidity 52    
Precipitation  
Precipitation 0.00 in - - ()
Sea Level Pressure  
Sea Level Pressure 30.14 in    
Wind  
Wind Speed 2 mph (WSW)    
Max Wind Speed 12 mph    
Max Gust Speed 17 mph    
Visibility 10 miles    
Events Rain    
Averages and records for this station are not official NWS values.
T = Trace of Precipitation, MM = Missing Value Source: NWS Daily Summary

Daily Weather History Graph

Daily Weather History Graph

Search for Another Location

Airport:

Trip Planner

Search our weather history database for the weather conditions in past years. The results will help you decide how hot, cold, wet, or windy it might be!

Date:

Astronomy

Jun. 24, 2013 Rise Set
Actual Time 5:40 AM EDT 8:33 PM EDT
Civil Twilight 5:08 AM EDT 9:05 PM EDT
Nautical Twilight 4:27 AM EDT 9:45 PM EDT
Astronomical Twilight 3:41 AM EDT 10:31 PM EDT
Moon 9:35 PM EDT (6/24) 7:04 AM EDT (6/24)
Length of Visible Light 15h 56m
Length of Day
14h 52m
Full, 98% of the Moon is Illuminated
Jun 24
Full
Jun 30
Last Quarter
Jul 8
New
Jul 15
First Quarter
Jul 22
Full

Hourly Weather History & Observations

Time (EDT) Temp. Heat Index Dew Point Humidity Pressure Visibility Wind Dir Wind Speed Gust Speed Precip Events Conditions
12:06 AM 74.3 °F - 74.3 °F 100% 30.16 in 10.0 mi Calm Calm - N/A   Clear
12:26 AM 73.8 °F - 73.8 °F 100% 30.16 in 10.0 mi Calm Calm - N/A   Clear
12:46 AM 73.4 °F - 73.4 °F 100% 30.16 in 10.0 mi Calm Calm - N/A   Clear
1:06 AM 73.4 °F - 73.4 °F 100% 30.16 in 10.0 mi Calm Calm - N/A   Clear
1:26 AM 73.4 °F - 73.4 °F 100% 30.16 in 10.0 mi Calm Calm - N/A   Clear
1:46 AM 73.8 °F - 73.8 °F 100% 30.16 in 10.0 mi Calm Calm - N/A   Clear
2:06 AM 74.7 °F - 74.7 °F 100% 30.15 in 10.0 mi Calm Calm - N/A   Clear
2:26 AM 73.9 °F - 73.9 °F 100% 30.15 in 10.0 mi Calm Calm - N/A   Clear
2:46 AM 74.3 °F - 74.3 °F 100% 30.15 in 10.0 mi Calm Calm - N/A   Clear
3:06 AM 73.9 °F - 73.9 °F 100% 30.15 in 10.0 mi Calm Calm - N/A   Clear
3:26 AM 74.3 °F - 74.3 °F 100% 30.14 in 10.0 mi Calm Calm - N/A   Clear
3:46 AM 74.3 °F - 74.3 °F 100% 30.15 in 10.0 mi Calm Calm - N/A   Clear
4:06 AM 74.5 °F - 74.5 °F 100% 30.15 in 10.0 mi Calm Calm - N/A   Clear
4:26 AM 74.8 °F - 74.8 °F 100% 30.15 in 10.0 mi Calm Calm - N/A   Clear
4:46 AM 74.8 °F - 74.8 °F 100% 30.15 in 10.0 mi Calm Calm - N/A   Clear
5:06 AM 74.5 °F - 74.5 °F 100% 30.15 in 10.0 mi West 4.6 mph - N/A   Clear
5:27 AM 74.1 °F - 74.1 °F 100% 30.15 in 10.0 mi WSW 4.6 mph - N/A   Clear
5:47 AM 74.3 °F - 74.3 °F 100% 30.15 in 10.0 mi WSW 4.6 mph - N/A   Clear
6:07 AM 74.7 °F - 74.7 °F 100% 30.15 in 10.0 mi WSW 4.6 mph - N/A   Clear
6:27 AM 75.0 °F - 75.0 °F 100% 30.16 in 10.0 mi WSW 4.6 mph - N/A   Clear
6:45 AM 77.0 °F - 77.0 °F 100% 30.16 in 10.0 mi WSW 5.8 mph - N/A   Clear
6:47 AM 76.3 °F - 76.3 °F 100% 30.16 in 10.0 mi WSW 4.6 mph - N/A   Clear
7:07 AM 77.2 °F - 77.2 °F 100% 30.16 in 10.0 mi WSW 4.6 mph - N/A   Clear
7:27 AM 78.1 °F - 75.6 °F 92% 30.16 in 10.0 mi West 6.9 mph - N/A   Clear
7:42 AM 78.1 °F - 75.0 °F 90% 30.16 in 10.0 mi West 8.1 mph - N/A   Clear
7:45 AM 77.0 °F - 75.2 °F 94% 30.16 in 10.0 mi WSW 9.2 mph - N/A   Clear
8:55 AM 80.6 °F 86.2 °F 75.2 °F 84% 30.17 in 10.0 mi WSW 9.2 mph - N/A   Clear
9:51 AM 84.2 °F 92.3 °F 75.2 °F 74% 30.16 in 10.0 mi West 4.6 mph - N/A   Clear
10:52 AM 86.0 °F 93.4 °F 73.4 °F 66% 30.16 in 10.0 mi West 4.6 mph - N/A   Scattered Clouds
11:51 AM 89.6 °F 96.2 °F 71.6 °F 55% 30.16 in 10.0 mi West 4.6 mph - N/A   Scattered Clouds
12:51 PM 89.6 °F 96.2 °F 71.6 °F 55% 30.15 in 10.0 mi West 3.5 mph - N/A   Scattered Clouds
1:55 PM 89.6 °F 98.2 °F 73.4 °F 59% 30.13 in 10.0 mi Calm Calm - N/A   Scattered Clouds
2:53 PM 91.4 °F 98.4 °F 71.6 °F 52% 30.10 in 10.0 mi SW 10.4 mph - N/A   Scattered Clouds
3:53 PM 89.6 °F 98.2 °F 73.4 °F 59% 30.08 in 10.0 mi SSW 11.5 mph 17.3 mph N/A   Scattered Clouds
4:53 PM 86.0 °F 93.4 °F 73.4 °F 66% 30.09 in 10.0 mi Calm Calm - N/A   Mostly Cloudy
5:53 PM 82.4 °F 88.2 °F 73.4 °F 74% 30.07 in 7.0 mi Calm Calm - N/A Rain Light Rain
6:53 PM 77.0 °F - 75.2 °F 94% 30.07 in 10.0 mi SW 6.9 mph - N/A   Mostly Cloudy
7:53 PM 77.0 °F - 73.4 °F 89% 30.09 in 10.0 mi Calm Calm - N/A   Scattered Clouds
8:53 PM 75.2 °F - 75.2 °F 100% 30.08 in 10.0 mi Calm Calm - N/A   Scattered Clouds
10:49 PM 72.5 °F - 72.5 °F 100% 30.09 in 10.0 mi Calm Calm - N/A   Clear
11:09 PM 72.1 °F - 72.1 °F 100% 30.09 in 10.0 mi Calm Calm - N/A   Clear
11:29 PM 71.8 °F - 71.8 °F 100% 30.10 in 10.0 mi Calm Calm - N/A   Clear
11:49 PM 71.6 °F - 71.6 °F 100% 30.09 in 10.0 mi Calm Calm - N/A   Clear